Santa Marta, Colombia

12:44 AM -05 on February 21, 2018 (GMT -0500)
Simon Bolivar

Weather History for SKSM - March, 2013

Change the Weather History Date:

Saturday, March 9, 2013

  Actual Average Record
Temperature  
Mean Temperature 86 °F -  
Max Temperature 94 °F 93 °F 95 °F (2015)
Min Temperature 78 °F 76 °F 73 °F (1999)
Cooling Degree Days 21    
Growing Degree Days 36 (Base 50)    
Moisture  
Dew Point 73 °F    
Average Humidity 65    
Maximum Humidity 84    
Minimum Humidity 42    
Precipitation  
Precipitation 0.00 in 0.00 in - ()
Sea Level Pressure  
Sea Level Pressure 29.76 in    
Wind  
Wind Speed 6 mph ()    
Max Wind Speed 18 mph    
Max Gust Speed -    
Visibility 5.4 miles    
Events      
Averages and records for this station are not official NWS values.
T = Trace of Precipitation, MM = Missing Value Source: Averaged Metar Reports

Daily Weather History Graph

Daily Weather History Graph

Search for Another Location

Airport or City:

Trip Planner

Search our weather history database for the weather conditions in past years. The results will help you decide how hot, cold, wet, or windy it might be!

Date:

Astronomy

Mar. 09, 2013 Rise Set
Actual Time 6:07 AM -05 6:07 PM -05
Civil Twilight 5:46 AM -05 6:28 PM -05
Nautical Twilight 5:21 AM -05 6:53 PM -05
Astronomical Twilight 4:57 AM -05 7:17 PM -05
Moon 4:11 AM -05 (3/9) 4:20 PM -05 (3/9)
Length of Visible Light 12h 42m
Length of Day
12h 00m
Waning Crescent, 5% of the Moon is Illuminated
Mar 9
Waning Crescent
Mar 11
New
Mar 19
First Quarter
Mar 27
Full
Apr 2
Last Quarter

Hourly Weather History & Observations

Time (-05) Temp. Heat Index Dew Point Humidity Pressure Visibility Wind Dir Wind Speed Gust Speed Precip Events Conditions
1:00 AM 78 °F - 74 °F 84% 29.79 in 4 mi Calm Calm - -   Haze
6:00 AM - - - N/A% 29.77 in 3.7 mi Calm Calm - N/A   Mostly Cloudy
7:00 AM 78 °F - 74 °F 84% 29.79 in 4 mi Calm Calm - -   Haze
7:00 AM 78.8 °F - 73.4 °F 83% 29.77 in 4.3 mi Calm Calm - N/A   Mostly Cloudy
8:00 AM 82.4 °F 89.5 °F 75.2 °F 79% 29.80 in 4.3 mi Calm Calm - N/A   Scattered Clouds
9:00 AM 82.4 °F 89.5 °F 75.2 °F 79% 29.80 in 4.3 mi Calm Calm - N/A   Partly Cloudy
10:00 AM 85 °F - 77 °F 70% 29.82 in 5 mi SW 4.5 mph - -   Haze
10:00 AM 84.2 °F 94.1 °F 77.0 °F 79% 29.80 in 5.0 mi SW 4.6 mph - N/A   Partly Cloudy
11:00 AM 86.0 °F 96.9 °F 77.0 °F 74% 29.80 in 5.0 mi SW 4.6 mph - N/A   Partly Cloudy
12:00 PM 93.2 °F 100.5 °F 71.6 °F 49% 29.80 in 5.6 mi North 9.2 mph - N/A   Partly Cloudy
1:00 PM 92 °F - 72 °F 42% 29.77 in 6 mi North 13.4 mph - -   Haze
1:00 PM 93.2 °F 100.5 °F 71.6 °F 49% 29.77 in 5.6 mi North 13.8 mph - N/A   Partly Cloudy
2:00 PM 93.2 °F 100.5 °F 71.6 °F 49% 29.74 in 5.6 mi NNE 16.1 mph - N/A   Partly Cloudy
3:00 PM 89.6 °F 96.2 °F 71.6 °F 55% 29.71 in 6.2 mi NNE 18.4 mph - N/A   Partly Cloudy
4:00 PM 89 °F - 71 °F 46% 29.73 in 6 mi NNE 17.9 mph - -   Haze
4:00 PM 89.6 °F 96.2 °F 71.6 °F 55% 29.71 in 6.2 mi NNE 18.4 mph - N/A   Partly Cloudy
5:00 PM 87.8 °F 93.8 °F 71.6 °F 58% 29.71 in 6.2 mi NNE 18.4 mph - N/A   Scattered Clouds
6:00 PM 86.0 °F 91.8 °F 71.6 °F 62% 29.71 in 6.2 mi NNE 13.8 mph - N/A   Scattered Clouds
7:00 PM 83 °F - 71 °F 59% 29.73 in 6 mi NNE 11.2 mph - -   Haze
7:00 PM 82.4 °F 87.2 °F 71.6 °F 70% 29.71 in 6.2 mi NNE 11.5 mph - N/A   Partly Cloudy
8:00 PM 82.4 °F 87.2 °F 71.6 °F 70% 29.74 in 6.2 mi NNE 16.1 mph - N/A   Scattered Clouds
9:00 PM 82.4 °F 87.2 °F 71.6 °F 70% 29.74 in 6.2 mi NE 13.8 mph - N/A   Partly Cloudy
10:00 PM 83 °F - 71 °F 60% 29.76 in 6 mi NE 11.2 mph - -   Haze
10:00 PM 82.4 °F 87.2 °F 71.6 °F 70% 29.74 in 6.2 mi NE 11.5 mph - N/A   Partly Cloudy